Regional Weather Roundup
Issued by NWS

Home | Current Version | Previous Version | Text Only | Print | Product List | Glossary Off
Versions: 1 2 3 4 5 6 7 8 9 10 11 12 13 14 15 16 17 18 19 20 21 22 23 24 25 26 27 28 29 30 31 32 33 34 35 36 37 38 39 40 41 42 43 44 45 46 47 48 49 50

000
ASUS43 KLSX 262107
RWRMO

WEATHER SUMMARY FOR MISSOURI
NATIONAL WEATHER SERVICE SPRINGFIELD MO
300 PM CST SUN FEB 26 2017

NOTE: "FAIR" INDICATES FEW OR NO CLOUDS BELOW 12,000 FEET WITH NO
       SIGNIFICANT WEATHER AND/OR OBSTRUCTIONS TO VISIBILITY.
       CURRENT SKY AND/OR WEATHER CONDITIONS ARE NOT AVAILABLE FOR
       CHILLICOTHE AND FARMINGTON.

MOZ001>031-035>038-043-044-053-054-262200-
...NORTHERN AND WESTERN MISSOURI...

CITY           SKY/WX    TMP DP  RH WIND       PRES   REMARKS
KANSAS CTY INT MOSUNNY   50  23  34 SW8       29.94F
KANSAS C DTWN  MOSUNNY   52  24  33 S8        29.95F
LEE`S SUMMIT   MOSUNNY   49  26  41 S9G20     29.96F
ST JOSEPH      PTSUNNY   50  26  39 SW15      29.93F
CHILLICOTHE      N/A     50  27  40 S15       29.96F
KIRKSVILLE     PTSUNNY   50  30  46 SW17G25   29.96F

$$
MOZ066>068-077>081-088>096-101>105-262200-
...SOUTHWEST MISSOURI...

CITY           SKY/WX    TMP DP  RH WIND       PRES   REMARKS
SPRINGFIELD    CLOUDY    40  35  83 E9        29.99F
JOPLIN         CLOUDY    44  37  76 SE13      29.96F
BRANSON        CLOUDY    48  25  40 E9        29.99F

$$
MOZ032>034-039>042-045>050-055>058-069>072-262200-
...CENTRAL MISSOURI...

CITY           SKY/WX    TMP DP  RH WIND       PRES   REMARKS
COLUMBIA       CLOUDY    48  21  34 S13       30.02F
JEFFERSON CITY CLOUDY    46  27  47 S14       30.04S
ROLLA          LGT RAIN  39  34  82 S16G24    30.05R
SEDALIA        CLOUDY    47  26  44 S16       30.01F
WHITEMAN AFB   PTSUNNY   46  27  48 S14       29.98F
WARRENSBURG    CLOUDY    46  27  46 SE13      29.98F
OSAGE BEACH    LGT RAIN  40  36  86 SW9       30.06S

$$
MOZ051-052-059>065-262200-
...EAST CENTRAL MISSOURI...

CITY           SKY/WX    TMP DP  RH WIND       PRES   REMARKS
ST LOUIS INTL  CLOUDY    49  19  30 S9        30.07
SPIRIT OF STL  CLOUDY    49  17  28 S10G16    30.06F
ST CHARLES     CLOUDY    48  16  27 S8        30.07F

$$
MOZ072>076-082>087-097>100-106>115-262200-
...SOUTH CENTRAL AND SOUTHEAST MISSOURI...

CITY           SKY/WX    TMP DP  RH WIND       PRES   REMARKS
CAPE GIRARDEAU CLOUDY    50  21  32 S9        30.12F
FARMINGTON     LGT RAIN  44  29  55 MISG      30.10S
POPLAR BLUFF   CLOUDY    51  25  36 S10       30.10F
WEST PLAINS    CLOUDY    48  20  32 S5        30.06F

$$


USA.gov is the U.S. government's official web portal to all federal, state and local government web resources and services.